Preview of NWS' New Version of Forecast
This preview is not operational and should not be used for support decisions.
Latest weather observations around

Seattle, Seattle Boeing Field (KBFI)

Using English Units (Switch to International System of Units)
Date/ Time (PDT) Wind (mph) Vis. (mi) Weather Sky Cond. Temp (°F) Rel. Humidity Wind Chill (°F) Heat Index (°F) Pressure Precip. (in)
Air Dwpt 6 hour Altimeter (inHg) Sea level (inHg) 1 hr 3 hr 6 hr
Max Min
Jun 25 15:53 7 10 Mostly Cloudy FEW040 BKN120 74 41     31%   72 29.84 29.83      
Jun 25 14:53 3 10 Clear   74 40     29%   72 29.84 29.84      
Jun 25 13:53 5 10 Clear CLR 72 43     35%   71 29.85 29.85      
Jun 25 12:53 3 10 Mostly Cloudy FEW035 BKN110 68 45     43%     29.87 29.86      
Jun 25 11:53 Calm 10 Mostly Cloudy FEW035 SCT120 BKN250 68 46     45%     29.88 29.88      
Jun 25 10:53 5 10 Mostly Cloudy SCT120 BKN250 64 48     56%     29.89 29.88      
Jun 25 09:53 Calm 10 Mostly Cloudy SCT140 BKN250 63 48     58%     29.9 29.89      
Jun 25 08:53 Calm 10 Mostly Cloudy SCT140 BKN250 60 49     67%     29.9 29.9      
Jun 25 07:53 E 3 10 Mostly Cloudy BKN140 BKN250 59 48     67%     29.91 29.91      
Jun 25 06:53 Calm 10 Partly Cloudy SCT140 56 48     75%     29.91 29.91      
Jun 25 05:53 Calm 10 Mostly Clear FEW140 53 46     77%     29.9 29.9      
Jun 25 04:53 Calm 10 Clear CLR 53 46     77%     29.9 29.89      
Jun 25 03:53 Calm 10 Clear CLR 53 46     77%     29.9 29.9      
Jun 25 02:53 Calm 10 Clear CLR 55 45     69%     29.91 29.91      
Jun 25 01:53 3 10 Clear CLR 56 46     69%     29.92 29.91      
Jun 25 00:53 3 10 Clear CLR 57 47     69%     29.92 29.92      
Jun 24 23:53 NW 5 10 Clear CLR 57 47     69%     29.93 29.93      
Jun 24 22:53 NW 5 10 Clear CLR 58 47     67%     29.93 29.93      
Jun 24 21:53 NW 5 10 Partly Cloudy FEW050 SCT250 62 48     60%     29.92 29.92      
Jun 24 20:53 WNW 6 10 Partly Cloudy FEW050 SCT250 65 45     48%     29.93 29.92      
Jun 24 19:53 WNW 6 10 Partly Cloudy FEW040 SCT200 67 41     39%     29.94 29.93      
Jun 24 18:53 W 5 10 Partly Cloudy FEW050 SCT250 69 41     36%     29.95 29.95      
Jun 24 16:53 5 10 Mostly Clear FEW050 69 42     38%     29.99 29.98      
Jun 24 14:53 Calm 10 Clear   66 46     48%     30.02 30.02      
Jun 24 13:53 Calm 10 Partly Cloudy SCT039 65 45     48%     30.04 30.03      
Jun 24 12:53 5 10 Mostly Cloudy BKN033 BKN045 64 47     54%     30.05 30.05      
Jun 24 11:53 SSE 3 10 Mostly Cloudy BKN022 BKN041 62 48     60%     30.07 30.07      
Jun 24 10:53 3 10 Cloudy FEW018 OVC027 58 49     72%     30.08 30.08      
Jun 24 10:34 ESE 5 10 Cloudy FEW013 BKN023 OVC048 57 50     77%     30.09        
Jun 24 09:53 E 5 6 Haze SCT024 OVC030 55 50     83%     30.09 30.09      
Jun 24 08:53 Calm 10 Cloudy OVC020 56 47     72%     30.09 30.09      
Jun 24 07:53 S 5 10 Cloudy OVC020 56 48     75%     30.09 30.09      
Jun 24 06:53 SE 5 10 Cloudy BKN021 OVC027 55 48     77%     30.09 30.09      
Jun 24 05:53 Calm 10 Cloudy OVC020 54 49     83%     30.1 30.09      
Jun 24 04:57 ESE 5 10 Cloudy SCT020 BKN027 OVC040 53 49     86%     30.1        
Jun 24 04:53 SE 5 10 Cloudy FEW020 SCT025 OVC040 53 49     86%     30.11 30.1     0
Jun 24 03:53 SSE 7 6 Fog/Mist FEW008 BKN026 OVC037 53 50     89%     30.12 30.11 0    
Jun 24 02:53 ESE 5 6 Haze BKN018 OVC032 54 49     83%     30.12 30.12 0    
Jun 24 01:53 6 10 Cloudy BKN018 OVC032 55 48     77%     30.12 30.12      
Jun 24 00:53 3 10 Cloudy BKN018 OVC032 56 47     72%     30.12 30.12      
Jun 23 23:53 Calm 10 Cloudy BKN018 OVC032 56 48     75%     30.13 30.13      
Jun 23 22:53 Calm 10 Cloudy BKN018 OVC032 56 47     72%     30.14 30.14      
Jun 23 21:53 5 10 Cloudy OVC028 56 47     72%     30.14 30.14      
Jun 23 20:53 ENE 3 10 Cloudy OVC028 57 48     72%     30.14 30.13      
Jun 23 19:53 NE 9 10 Cloudy FEW036 OVC065 58 48     70%     30.14 30.13      
Jun 23 18:53 6 10 Cloudy BKN033 BKN042 OVC065 60 51     72%     30.13 30.12      
Jun 23 17:53 6 10 Mostly Cloudy SCT028 SCT041 BKN060 63 50     63%     30.13 30.13      
Jun 23 16:53 ENE 6 10 Cloudy OVC060 63 50     63%     30.14 30.14     0
Jun 23 15:53 E 3 10 Cloudy BKN031 OVC050 62 49     62%     30.15 30.15 0    
Jun 23 14:53 SE 3 10 Cloudy OVC033 63 48     58%     30.17 30.16      
Jun 23 13:53 SSW 5 10 Cloudy SCT028 OVC038 62 48     60%     30.17 30.17      
Jun 23 12:53 SSW 5 10 Cloudy SCT015 OVC025 61 49     64%     30.19 30.19      
Jun 23 11:53 S 9 10 Cloudy SCT015 OVC024 60 48     64%     30.19 30.19      
Jun 23 10:53 S 7 10 Cloudy BKN015 OVC021 58 49     72%     30.19 30.19     0
Jun 23 09:53 S 9 10 Cloudy BKN012 OVC025 56 49     77%     30.19 30.19      
Jun 23 09:12 7 7 Cloudy BKN011 OVC020 56 49     77%     30.19        
Jun 23 09:00 SSE 8 10 Cloudy BKN016 OVC025 56 50     80%     30.18        
Jun 23 08:53 S 6 7 Cloudy BKN011 OVC020 56 49     77%     30.18 30.18      
Jun 23 07:53 S 7 5 Fog/Mist BKN007 OVC020 54 50     86%     30.18 30.18   0  
Jun 23 06:53 S 6 3 Fog/Mist BKN007 OVC015 54 50     86%     30.17 30.17 0    
Jun 23 05:53 SW 5 2.5 Fog/Mist OVC009 55 52     89%     30.17 30.16      
Jun 23 05:00 SW 5 4 Fog/Mist OVC012 56 52     87%     30.16        
Jun 23 04:53 SW 5 7 Cloudy OVC015 57 52     83%     30.16 30.16      
Jun 23 03:53 S 5 10 Cloudy OVC015 58 51     78%     30.16 30.16      
Jun 23 02:53 SSW 3 10 Clear   59 51     75%     30.17 30.16      
Jun 23 01:53 Calm 10 Cloudy OVC016 59 52     78%     30.17 30.16      
Jun 23 01:00 3 10 Cloudy OVC017 59 51     75%     30.17        
Jun 23 00:53 NNW 5 10 Cloudy SCT024 OVC055 60 51     72%     30.17 30.17      
Jun 22 23:53 SW 6 10 Cloudy OVC055 61 52     72%     30.17 30.17      
Jun 22 22:53 NW 3 10 Cloudy SCT030 OVC085 62 50     65%     30.17 30.17      
Jun 22 21:53 WSW 7 10 Cloudy BKN032 BKN044 OVC090 62 50     65%     30.18 30.17      
Jun 22 20:53 E 5 10 Cloudy OVC037 65 49     56%     30.17 30.17      
Jun 22 19:53 E 6 10 Cloudy SCT037 OVC055 66 48     52%     30.17 30.17      
Jun 22 18:53 Calm 10 Mostly Cloudy BKN034 BKN080 65 49     56%     30.18 30.17      
Jun 22 17:53 NE 3 10 Mostly Cloudy BKN034 BKN080 65 48     54%     30.19 30.19      
May 15 05:53 SSW 6 10 Cloudy OVC008 55 51     86%     29.92 29.92      
May 14 14:53 NNW 8 10 Clear CLR 83 51     33%   81 29.88 29.88      
May 13 17:53 NW 7 10 Clear CLR 81 47     30%   80 29.87 29.87      
May 13 11:53 Calm 10 Clear CLR 71 54     55%   70 29.95 29.94      
May 13 10:53 6 10 Clear CLR 69 53     57%     29.95 29.95      
May 13 08:53 ENE 3 10 Clear CLR 64 51     63%     29.98 29.97      
May 12 01:53 SE 6 10 Clear CLR 53 47     80%     30.19 30.19      
May 12 00:53 Calm 10 Clear CLR 57 46     67%     30.19 30.19      
May 11 17:53 3 10 Partly Cloudy SCT046 67 46     47%     30.2 30.2      
Jun 12 03:53 SSE 8 10 Mostly Cloudy BKN060 53 51     93%     30 30      
Jun 12 02:53 SSE 7 10 Mostly Cloudy BKN055 54 51     90%     30 29.99      
Jun 11 22:53 Calm 10 Clear CLR 61 49     64%     29.99 29.99      
Jun 11 14:53 NW 8 10 Clear   69 48     47%     30 29.99      
Jun 11 01:53 Calm 10 Mostly Cloudy BKN085 57 47     69%     29.97 29.97      
Jun 10 23:53 Calm 10 Cloudy OVC075 59 47     64%     29.95 29.95      
Jun 10 15:53 NNW 7 10 Clear   65 44     47%     29.85 29.85      
Jun 08 08:44 SSE 8 10 Light Rain SCT007 BKN038 OVC095 57 57     100%     29.66   0    
Jun 07 14:53 6 10 Cloudy SCT140 OVC250 79 54     42%   79 29.69 29.69      
Jun 06 00:53 3 10 Clear CLR 60 46     60%     30.04 30.04      
Jun 05 20:53 NW 6 10 Clear CLR 65 46     50%     30.05 30.05      
Jun 05 19:53 NW 6 10 Mostly Cloudy BKN200 67 47     49%     30.05 30.05      
Jun 05 15:53 WNW 9 10 Mostly Cloudy BKN250 71 45     39%   70 30.08 30.07